Erzincan, Turkey

6:22 AM +03 on April 25, 2018 (GMT +0300)
Erzincan

Weather History for LTCD - September, 2013

Change the Weather History Date:

Sunday, September 29, 2013

  Actual Average Record
Temperature  
Mean Temperature 57 °F -  
Max Temperature 74 °F 67 °F - ()
Min Temperature 40 °F 41 °F - ()
Degree Days  
Heating Degree Days 8    
Growing Degree Days 7 (Base 50)    
Moisture  
Dew Point 38 °F    
Average Humidity 48    
Maximum Humidity 81    
Minimum Humidity 11    
Precipitation  
Precipitation 0.00 in 0.05 in - ()
Sea Level Pressure  
Sea Level Pressure 30.02 in    
Wind  
Wind Speed 4 mph ()    
Max Wind Speed 14 mph    
Max Gust Speed -    
Visibility 6.4 miles    
Events      
T = Trace of Precipitation, MM = Missing Value Source: Averaged Metar Reports

Daily Weather History Graph

Daily Weather History Graph

Search for Another Location

Airport or City:

Astronomy

Sep. 29, 2013 Rise Set
Actual Time 6:16 AM EEST 6:07 PM EEST
Civil Twilight 5:49 AM EEST 6:34 PM EEST
Nautical Twilight 5:17 AM EEST 7:05 PM EEST
Astronomical Twilight 4:46 AM EEST 7:37 PM EEST
Moon 12:38 AM EEST (9/29) 2:50 PM EEST (9/29)
Length of Visible Light 12h 45m
Length of Day
11h 51m
Waning Crescent, 30% of the Moon is Illuminated
Sep 29
Waning Crescent
Oct 5
New
Oct 12
First Quarter
Oct 19
Full
Oct 27
Last Quarter

Hourly Weather History & Observations

Time (EEST) Temp. Dew Point Humidity Pressure Visibility Wind Dir Wind Speed Gust Speed Precip Events Conditions
12:50 AM 55.4 °F 41.0 °F 58% 30.04 in 6.2 mi NW 8.1 mph - N/A   Mostly Cloudy
1:50 AM 51.8 °F 41.0 °F 67% 30.04 in 6.2 mi Variable 2.3 mph - N/A   Mostly Cloudy
2:50 AM 46.4 °F 37.4 °F 71% 30.04 in 6.2 mi Variable 1.2 mph - N/A   Scattered Clouds
3:00 AM 47 °F 38 °F 61%  in 12 mi ESE 1.2 mph - -   Scattered Clouds
3:50 AM 46.4 °F 39.2 °F 76% 30.04 in - Calm Calm - N/A   Clear
4:50 AM 42.8 °F 37.4 °F 81% 30.04 in - Calm Calm - N/A   Clear
5:50 AM 42.8 °F 37.4 °F 81% 30.04 in - Calm Calm - N/A   Clear
6:50 AM 42.8 °F 37.4 °F 81% 30.06 in - NNW 2.3 mph - N/A   Clear
7:50 AM 50.0 °F 39.2 °F 66% 30.06 in - Calm Calm - N/A   Clear
8:50 AM 55.4 °F 41.0 °F 58% 30.06 in - Variable 1.2 mph - N/A   Clear
9:00 AM 56 °F 41 °F 46%  in 6 mi SSE 1.2 mph - -  
9:50 AM 60.8 °F 41.0 °F 48% 30.06 in 6.2 mi Calm Calm - N/A   Partly Cloudy
10:50 AM 64.4 °F 41.0 °F 42% 30.04 in 6.2 mi Variable 1.2 mph - N/A   Partly Cloudy
11:50 AM 68.0 °F 37.4 °F 33% 30.04 in 6.2 mi Variable 3.5 mph - N/A   Scattered Clouds
12:50 PM 71.6 °F 35.6 °F 27% 30.01 in 6.2 mi West 10.4 mph - N/A   Scattered Clouds
1:50 PM 73.4 °F 32.0 °F 22% 29.98 in 6.2 mi WSW 13.8 mph - N/A   Scattered Clouds
2:50 PM 73.4 °F 30.2 °F 20% 29.95 in 6.2 mi West 10.4 mph - N/A   Scattered Clouds
3:00 PM 73 °F 29 °F 11%  in 6 mi West 10.4 mph - -   Scattered Clouds
3:50 PM 73.4 °F 33.8 °F 23% 29.95 in 6.2 mi West 10.4 mph - N/A   Mostly Cloudy
4:50 PM 69.8 °F 35.6 °F 28% 29.95 in 6.2 mi West 8.1 mph - N/A   Mostly Cloudy
5:50 PM 68.0 °F 37.4 °F 33% 29.98 in 6.2 mi NW 12.7 mph - N/A   Mostly Cloudy
6:50 PM 66.2 °F 39.2 °F 37% 29.98 in 6.2 mi North 2.3 mph - N/A   Mostly Cloudy
7:50 PM 59.0 °F 39.2 °F 48% 30.01 in 6.2 mi West 3.5 mph - N/A   Scattered Clouds
8:50 PM 62.6 °F 39.2 °F 42% 30.01 in 6.2 mi WNW 5.8 mph - N/A   Scattered Clouds
9:00 PM 62 °F 38 °F 29%  in 6 mi WNW 5.8 mph - -   Partly Cloudy
9:50 PM 57.2 °F 39.2 °F 51% 30.01 in 6.2 mi NNW 4.6 mph - N/A   Scattered Clouds
10:50 PM 57.2 °F 39.2 °F 51% 30.04 in 6.2 mi NW 8.1 mph - N/A   Partly Cloudy
11:50 PM 57.2 °F 39.2 °F 51% 30.04 in - NW 8.1 mph - N/A   Clear